Perryton, TX

7:17 AM CDT on October 21, 2017 (GMT -0500)
Perryton Ochiltree County

Weather History for KPYX - March, 2013

Change the Weather History Date:

Sunday, March 17, 2013

  Actual Average Record
Temperature  
Mean Temperature 44 °F -  
Max Temperature 59 °F 58 °F 84 °F (2009)
Min Temperature 30 °F 30 °F 15 °F (1969)
Degree Days  
Heating Degree Days 21    
Moisture  
Dew Point 31 °F    
Average Humidity 63    
Maximum Humidity 85    
Minimum Humidity 38    
Precipitation  
Precipitation 0.00 in - - ()
Sea Level Pressure  
Sea Level Pressure 29.77 in    
Wind  
Wind Speed 10 mph (East)    
Max Wind Speed 24 mph    
Max Gust Speed 25 mph    
Visibility 10 miles    
Events      
Averages and records for this station are not official NWS values.
T = Trace of Precipitation, MM = Missing Value Source: NWS Daily Summary

Daily Weather History Graph

Daily Weather History Graph

Search for Another Location

Airport or City:

Trip Planner

Search our weather history database for the weather conditions in past years. The results will help you decide how hot, cold, wet, or windy it might be!

Date:

Astronomy

Mar. 17, 2013 Rise Set
Actual Time 7:50 AM CDT 7:52 PM CDT
Civil Twilight 7:24 AM CDT 8:18 PM CDT
Nautical Twilight 6:54 AM CDT 8:48 PM CDT
Astronomical Twilight 6:24 AM CDT 9:18 PM CDT
Moon 11:13 AM CDT (3/17) 12:53 AM CDT (3/17)
Length of Visible Light 12h 53m
Length of Day
12h 01m
Waxing Crescent, 31% of the Moon is Illuminated
Mar 17
Waxing Crescent
Mar 19
First Quarter
Mar 27
Full
Apr 2
Last Quarter
Apr 10
New

Hourly Weather History & Observations

Time (CDT) Temp. Windchill Dew Point Humidity Pressure Visibility Wind Dir Wind Speed Gust Speed Precip Events Conditions
12:15 AM 38.7 °F 30.9 °F 29.3 °F 69% 29.93 in 10.0 mi NE 12.7 mph - N/A   Clear
12:35 AM 38.5 °F 29.9 °F 29.3 °F 70% 29.94 in 10.0 mi NE 15.0 mph - N/A   Scattered Clouds
12:55 AM 38.5 °F 29.2 °F 29.1 °F 69% 29.92 in 10.0 mi NNE 17.3 mph - N/A   Mostly Cloudy
1:15 AM 37.8 °F 30.2 °F 28.6 °F 69% 29.91 in 10.0 mi NE 11.5 mph - N/A   Scattered Clouds
1:35 AM 37.4 °F 28.5 °F 28.4 °F 70% 29.90 in 10.0 mi NE 15.0 mph - N/A   Scattered Clouds
1:55 AM 36.5 °F 29.2 °F 28.2 °F 72% 29.91 in 10.0 mi NNE 10.4 mph - N/A   Scattered Clouds
2:15 AM 35.8 °F 28.8 °F 27.9 °F 73% 29.90 in 10.0 mi NE 9.2 mph - N/A   Clear
2:35 AM 35.6 °F 29.2 °F 27.5 °F 72% 29.90 in 10.0 mi NE 8.1 mph - N/A   Clear
2:55 AM 35.6 °F 29.9 °F 27.9 °F 73% 29.91 in 10.0 mi NNE 6.9 mph - N/A   Clear
3:15 AM 35.1 °F 27.9 °F 27.5 °F 74% 29.91 in 10.0 mi NNE 9.2 mph - N/A   Scattered Clouds
3:35 AM 34.7 °F 30.6 °F 27.9 °F 76% 29.91 in 10.0 mi North 4.6 mph - N/A   Clear
3:55 AM 34.0 °F 29.8 °F 27.9 °F 78% 29.93 in 10.0 mi North 4.6 mph - N/A   Clear
4:15 AM 33.8 °F 27.7 °F 27.7 °F 78% 29.91 in 10.0 mi North 6.9 mph - N/A   Clear
4:35 AM 34.0 °F 26.6 °F 27.7 °F 78% 29.89 in 10.0 mi NNE 9.2 mph - N/A   Mostly Cloudy
4:55 AM 33.4 °F 26.6 °F 27.3 °F 78% 29.89 in 10.0 mi North 8.1 mph - N/A   Scattered Clouds
5:15 AM 33.1 °F 26.1 °F 27.0 °F 78% 29.87 in 10.0 mi NE 8.1 mph - N/A   Scattered Clouds
5:35 AM 32.9 °F 25.9 °F 26.6 °F 78% 29.88 in 10.0 mi NNE 8.1 mph - N/A   Scattered Clouds
5:55 AM 32.9 °F 24.7 °F 26.6 °F 78% 29.87 in 10.0 mi NE 10.4 mph - N/A   Mostly Cloudy
6:15 AM 32.7 °F 25.0 °F 26.6 °F 78% 29.88 in 10.0 mi NNE 9.2 mph - N/A   Mostly Cloudy
6:35 AM 32.4 °F 26.0 °F 26.4 °F 79% 29.88 in 10.0 mi NNE 6.9 mph - N/A   Mostly Cloudy
6:55 AM 32.2 °F 25.0 °F 26.6 °F 80% 29.88 in 10.0 mi North 8.1 mph - N/A   Mostly Cloudy
7:15 AM 32.0 °F 27.5 °F 26.1 °F 79% 29.91 in 10.0 mi North 4.6 mph - N/A   Scattered Clouds
7:35 AM 31.5 °F 25.8 °F 26.1 °F 80% 29.87 in 10.0 mi NNE 5.8 mph - N/A   Clear
7:55 AM 30.7 °F - 25.7 °F 82% 29.88 in 10.0 mi Calm Calm - N/A   Clear
8:15 AM 30.4 °F 26.9 °F 25.5 °F 82% 29.88 in 10.0 mi NNE 3.5 mph - N/A   Clear
8:35 AM 30.0 °F 24.1 °F 25.9 °F 85% 29.88 in 10.0 mi NNW 5.8 mph - N/A   Clear
8:55 AM 31.6 °F 26.0 °F 27.0 °F 83% 29.88 in 10.0 mi North 5.8 mph - N/A   Clear
9:15 AM 32.9 °F 27.5 °F 27.3 °F 80% 29.88 in 10.0 mi North 5.8 mph - N/A   Clear
9:35 AM 33.4 °F 28.1 °F 27.3 °F 78% 29.88 in 10.0 mi North 5.8 mph - N/A   Scattered Clouds
9:55 AM 35.2 °F - 28.0 °F 75% 29.88 in 10.0 mi Calm Calm - N/A   Mostly Cloudy
10:15 AM 37.0 °F - 28.9 °F 73% 29.88 in 10.0 mi Calm Calm - N/A   Mostly Cloudy
10:35 AM 37.0 °F - 28.9 °F 73% 29.88 in 10.0 mi Calm Calm - N/A   Overcast
10:55 AM 37.6 °F - 28.9 °F 71% 29.87 in 10.0 mi Calm Calm - N/A   Overcast
11:15 AM 39.6 °F 37.4 °F 29.8 °F 68% 29.86 in 10.0 mi ENE 3.5 mph - N/A   Overcast
11:35 AM 39.4 °F 37.2 °F 29.7 °F 68% 29.86 in 10.0 mi ENE 3.5 mph - N/A   Overcast
11:55 AM 40.3 °F - 29.7 °F 66% 29.85 in 10.0 mi Calm Calm - N/A   Overcast
12:15 PM 42.1 °F 38.4 °F 30.4 °F 63% 29.83 in 10.0 mi East 5.8 mph - N/A   Overcast
12:35 PM 43.5 °F 41.9 °F 31.1 °F 62% 29.83 in 10.0 mi East 3.5 mph - N/A   Mostly Cloudy
12:55 PM 45.7 °F 42.0 °F 31.6 °F 58% 29.80 in 10.0 mi SE 6.9 mph - N/A   Mostly Cloudy
1:15 PM 47.1 °F - 32.5 °F 57% 29.79 in 10.0 mi SE 4.6 mph - N/A   Scattered Clouds
1:35 PM 48.6 °F - 33.1 °F 55% 29.76 in 10.0 mi SSE 9.2 mph - N/A   Clear
1:55 PM 50.2 °F - 34.0 °F 54% 29.76 in 10.0 mi SSE 8.1 mph - N/A   Clear
2:15 PM 51.3 °F - 33.1 °F 50% 29.74 in 10.0 mi SE 6.9 mph - N/A   Clear
2:35 PM 52.9 °F - 33.4 °F 48% 29.73 in 10.0 mi SSE 6.9 mph - N/A   Clear
2:55 PM 53.6 °F - 33.6 °F 47% 29.71 in 10.0 mi SSE 8.1 mph - N/A   Clear
3:15 PM 55.0 °F - 33.4 °F 44% 29.69 in 10.0 mi South 13.8 mph 21.9 mph N/A   Clear
3:35 PM 55.4 °F - 33.4 °F 43% 29.67 in 10.0 mi South 10.4 mph - N/A   Clear
3:55 PM 57.2 °F - 33.3 °F 40% 29.64 in 10.0 mi South 12.7 mph 16.1 mph N/A   Clear
4:15 PM 57.9 °F - 33.3 °F 39% 29.63 in 10.0 mi SSE 11.5 mph 20.7 mph N/A   Clear
4:35 PM 57.0 °F - 32.5 °F 40% 29.62 in 10.0 mi South 13.8 mph 17.3 mph N/A   Clear
4:55 PM 58.3 °F - 32.9 °F 38% 29.61 in 10.0 mi SSE 15.0 mph 19.6 mph N/A   Clear
5:15 PM 57.9 °F - 32.9 °F 39% 29.60 in 10.0 mi SSE 15.0 mph 19.6 mph N/A   Clear
5:35 PM 58.5 °F - 33.3 °F 39% 29.58 in 10.0 mi SSE 13.8 mph - N/A   Clear
5:55 PM 56.8 °F - 33.1 °F 41% 29.58 in 10.0 mi SSE 16.1 mph 19.6 mph N/A   Clear
6:15 PM 57.0 °F - 33.4 °F 41% 29.57 in 10.0 mi SE 16.1 mph - N/A   Clear
6:35 PM 56.7 °F - 34.2 °F 43% 29.59 in 10.0 mi SE 15.0 mph - N/A   Clear
6:55 PM 56.8 °F - 34.5 °F 43% 29.55 in 10.0 mi SE 24.2 mph - N/A   Scattered Clouds
7:15 PM 58.1 °F - 34.3 °F 41% 29.54 in 10.0 mi ESE 20.7 mph - N/A   Scattered Clouds
7:35 PM 56.8 °F - 34.0 °F 42% 29.57 in 10.0 mi ESE 12.7 mph - N/A   Clear
7:55 PM 54.1 °F - 34.2 °F 47% 29.59 in 10.0 mi East 12.7 mph - N/A   Clear
8:15 PM 52.3 °F - 35.6 °F 53% 29.60 in 10.0 mi East 13.8 mph - N/A   Scattered Clouds
8:35 PM 51.8 °F - 36.5 °F 56% 29.59 in 10.0 mi ESE 13.8 mph - N/A   Scattered Clouds
8:55 PM 50.4 °F - 36.7 °F 59% 29.60 in 10.0 mi East 13.8 mph 18.4 mph N/A   Scattered Clouds
9:15 PM 49.3 °F - 36.3 °F 61% 29.60 in 10.0 mi SE 13.8 mph - N/A   Clear
9:35 PM 48.9 °F - 36.0 °F 61% 29.60 in 10.0 mi SE 12.7 mph - N/A   Clear
9:55 PM 48.2 °F - 35.8 °F 62% 29.60 in 10.0 mi SE 11.5 mph - N/A   Clear
10:15 PM 47.8 °F - 35.6 °F 63% 29.60 in 10.0 mi SSE 12.7 mph - N/A   Clear
10:35 PM 48.4 °F - 35.6 °F 61% 29.60 in 10.0 mi SSE 12.7 mph - N/A   Clear
10:55 PM 46.8 °F - 35.1 °F 64% 29.59 in 10.0 mi SE 10.4 mph - N/A   Clear
11:15 PM 46.6 °F - 34.9 °F 64% 29.60 in 10.0 mi SE 10.4 mph - N/A   Clear
11:35 PM 46.4 °F 41.5 °F 34.9 °F 64% 29.60 in 10.0 mi SSE 10.4 mph - N/A   Clear
11:55 PM 47.3 °F - 35.6 °F 64% 29.65 in 10.0 mi ENE 8.1 mph 25.3 mph N/A   Clear